Location: Suzhou
(31.3110°N, 120.6180°E)
Time: 01:49:54
(UTC+08:00)

FO-29 - Visible Passes

Search period start: 13 June 2025 00:00
Search period end: 23 June 2025 00:00
Orbit: 800 x 1320 km, 98.6° (Epoch: 11 June)

Date Brightness Start Highest point End Pass type
(mag) Time Alt. Az. Time Alt. Az. Time Alt. Az.
13 Jun 11.3 21:12:09 10° NE 21:17:33 22° E 21:17:33 22° E visible
13 Jun 10.2 22:55:28 10° N 23:03:07 65° WNW 23:04:02 61° WSW visible
14 Jun 12.4 00:46:08 10° NW 00:46:44 10° WNW 00:47:20 10° WNW visible
14 Jun 10.2 22:00:29 10° NNE 22:08:05 53° E 22:08:11 53° ESE visible
14 Jun 11.4 23:46:14 10° NNW 23:52:34 29° WNW 23:54:39 25° W visible
15 Jun 11.4 21:07:09 10° NE 21:12:21 20° E 21:12:21 20° E visible
15 Jun 10.2 22:50:11 10° N 22:57:55 70° WNW 22:58:49 65° WSW visible
16 Jun 12.3 00:39:29 10° NW 00:41:34 11° WNW 00:43:41 10° WNW visible
16 Jun 10.3 21:55:18 10° NNE 22:02:51 50° E 22:02:58 50° ESE visible
16 Jun 11.3 23:40:51 10° N 23:47:23 31° WNW 23:49:26 27° W visible
17 Jun 11.4 21:02:12 10° NE 21:07:07 18° E 21:07:07 18° E visible
17 Jun 10.1 22:44:54 10° N 22:52:44 74° WNW 22:53:36 68° WSW visible
18 Jun 12.2 00:33:33 10° NW 00:36:25 12° WNW 00:39:18 10° W visible
18 Jun 10.4 21:50:07 10° NNE 21:57:37 46° E 21:57:44 46° E visible
18 Jun 11.2 23:35:29 10° N 23:42:13 33° WNW 23:44:13 29° W visible
19 Jun 11.5 20:57:18 10° NE 21:01:53 17° E 21:01:53 17° E visible
19 Jun 10.0 22:39:38 10° N 22:47:31 79° WNW 22:48:21 72° SW visible
20 Jun 12.2 00:27:49 10° NNW 00:31:15 14° WNW 00:34:42 10° W visible
20 Jun 10.5 21:44:58 10° NNE 21:52:22 43° E 21:52:29 43° E visible
20 Jun 11.1 23:30:07 10° N 23:37:02 35° WNW 23:38:58 31° W visible
21 Jun 11.6 20:52:29 10° ENE 20:56:37 15° E 20:56:37 15° E visible
21 Jun 10.0 22:34:24 10° N 22:42:19 85° WNW 22:43:05 75° SW visible
22 Jun 12.1 00:22:12 10° NNW 00:26:06 15° WNW 00:29:33 11° W visible
22 Jun 10.6 21:39:51 10° NNE 21:47:06 39° E 21:47:13 39° E visible
22 Jun 11.0 23:24:48 10° N 23:31:51 38° WNW 23:33:41 33° W visible
